Regional Weather Roundup
Issued by NWS

Home | Current Version | Previous Version | Graphics & Text | Print | Product List | Glossary On
Versions: 1 2 3 4 5 6 7 8 9 10 11 12 13 14 15 16 17 18 19 20 21 22 23 24 25 26 27
000
ASUS45 KSLC 291210
RWRUT

UTAH REGIONAL WEATHER ROUNDUP
NATIONAL WEATHER SERVICE SALT LAKE CITY UT
600 AM MDT SUN MAY 29 2016

UTZ001>011-023>025-291300-

NORTHERN UTAH

CITY           SKY/WX    TMP DP  RH WIND       PRES   REMARKS
BRIGHAM CITY     N/A     48  40  74 N8        30.09R
HILL AFB       PTCLDY    51  36  56 E17       30.09R
LOGAN          CLEAR     41  39  93 W5        30.12R
OGDEN          PTCLDY    51  38  60 S5        30.08R
PROVO AIRPORT  CLEAR     52  39  62 CALM      30.10S
SALT LAKE CITY MOCLDY    57  41  55 E8        30.07R
VERNAL         CLEAR     46  37  71 W3        30.16R
WENDOVER       PTCLDY    57  39  51 S8        30.07R
HEBER CITY     CLEAR     36  32  87 CALM      30.16R
WEST JORDAN    PTCLDY    54  43  66 SW5       30.09S

$$

UTZ012>022-026-027-291300-

SOUTHERN/CENTRAL UTAH

CITY           SKY/WX    TMP DP  RH WIND       PRES   REMARKS
BLANDING       PTCLDY    56  30  36 N12       30.19R
BRYCE CANYON   CLEAR     36  30  79 W9        30.23R WCI  29
CEDAR CITY     CLEAR     47  35  63 S3        30.09R
DELTA          PTCLDY    46  39  76 S3        30.09R
HANKSVILLE     PTCLDY    48  34  57 CALM      30.11S
MILFORD        PTCLDY    48  36  63 W5        30.08S
MOAB/CYNLANDS  CLEAR     51  32  48 CALM      30.08R
PRICE          PTCLDY    44  33  65 N8        30.15R
ST GEORGE      SUNNY     64  30  27 SE3       29.96R
KANAB          CLEAR     55  36  47 N8        30.09R

$$

REGIONAL REPORTS     COLORADO/ARIZONA

CITY           SKY/WX    TMP DP  RH WIND       PRES   REMARKS
CRAIG, CO      CLEAR     34  31  88 CALM      30.22R
GRAND JUNCTION CLEAR     50  36  58 SE9       30.13R
RIFLE          CLEAR     40  33  76 CALM      30.20R
MONTROSE       CLOUDY    44  33  65 SE6       30.21R
CORTEZ         CLOUDY    36  30  79 E3        30.15R
PAGE, AZ       NOT AVBL
GRAND CANYON   CLEAR     31  22  69 CALM      30.16S
KINGMAN        CLEAR     58  28  32 MISG      29.98R
FLAGSTAFF      CLEAR     32  20  61 CALM      30.18R

$$

REGIONAL REPORTS    NEVADA/IDAHO/WYOMING

CITY           SKY/WX    TMP DP  RH WIND       PRES   REMARKS
LAS VEGAS, NV  PTCLDY    73  27  18 SW3       29.84R
ELY            PTCLDY    37  34  89 S9        30.16R WCI  30
ELKO           PTCLDY    49  43  80 E8        30.09S
POCATELLO, ID  PTCLDY    38  33  82 W6        30.11R WCI  33
BURLEY         CLEAR     42  37  82 CALM      30.07S
EVANSTON, WY   CLOUDY    44  30  57 E3        30.21R
ROCK SPRINGS   CLEAR     43  35  73 CALM      30.21R
KEMMERER         N/A     32  30  93 N10       30.23S WCI  24

$$




USA.gov is the U.S. government's official web portal to all federal, state and local government web resources and services.